Location: S�o Paulo
(23.5330°S, 46.6170°W)
Time: 20:19:19
(UTC-03:00)

ISS - Visible Passes

Search period start: 22 May 2017 00:00
Search period end: 01 June 2017 00:00
Orbit: 402 x 409 km, 51.6° (Epoch: 23 May)

Date Brightness Start Highest point End Pass type
(mag) Time Alt. Az. Time Alt. Az. Time Alt. Az.
22 May -1.4 18:13:59 10° WSW 18:16:52 27° NW 18:19:43 10° N visible
27 May -0.7 05:43:16 10° N 05:45:35 18° NE 05:47:54 10° E visible
29 May -3.4 05:34:29 10° NNW 05:37:42 65° NE 05:40:59 10° SE visible
30 May -1.6 04:45:27 24° NE 04:45:43 25° NE 04:48:27 10° ESE visible
31 May -3.0 05:30:14 32° SSW 05:30:14 32° SSW 05:32:57 10° SSE visible
